Showing default

PUNCH-WFI02, 63181

Orbit data source: Space-Track

PUNCH-WFI02, 63181 is an American payload satellite in SSO that was launched on Wed, 12 Mar 2025 UTC via an FALCON 9 launch vehicle from the Air Force Western Test Range (AFWTR). Payload-class satellites include a variety of spacecraft equipped with specific instruments for various scientific and technological missions. These include communications satellites like Starlink; space stations such as the ISS; scientific satellites like the Hubble; Earth observation satellites from companies like Planet Labs, Umbra, and HawkEye 360; GPS; miniature CubeSats for education and research; and military/defense satellites.

Loading next visibility...
Identifier
63181, 2025-047D
Orbit
SSO
Country
Flag of USUS
Related business
Manufacturer
SWRI
Mission
Operational Civil Astronomy
Bus & Motor
PUNCH, Unknown motor
Mass
64 kg wet, 64 kg dry
Launch date (UTC)
2025-03-12 (2 years ago)
Launch vehicle
FALCON 9
Launch site
Air Force Western Test Range (AFWTR)
Object type
Payload
Rocket body
Debris
Shape & HBR
Box + 1 Pan, 1.9 m
Radar Cross Section
0.625 m², Large (>1 m²)

Expand to show TLE details & history
Last TLE update: 11 hours ago

TLE from 11 hours ago
0 PUNCH-WFI02
1 63181U 25047D   26257.75159306  .00000357  00000-0  61349-4 0  9997
2 63181  97.9590  81.2553 0008027 252.5235 107.5097 14.74429513 81250
Epoch: 2026-09-14T18:02Z
TLE epoch observation values (Epoch: 2026-09-14T18:02:17.640Z)
Latitude
0.00002°
Longitude
176.95441°
Altitude
651.676 km
Speed
7.531 km/s
True Right ascension
05h 25m 01s
True Declination
0° 00' 00"
Sunlit
Object was in daylight at epoch
Visualization orbit readout
Latitude
Unknown
Longitude
Unknown
Altitude
Unknown
Speed
Unknown
Apparent Right ascension
Unknown
Apparent Declination
Unknown
Sunlit
N/A
Visualization observer readout
Local Sidereal Time
21:08:35
Azimuth
Unknown
Elevation
Unknown
Doppler factor
Unknown
Orbital elements
Apogee altitude
649.65 km
Perigee altitude
638.377 km
Semi-major axis
7,022.151 km
Eccentricity
0.0008
Inclination
97.959°
RAAN
81.2553°
Arg. of periapsis
252.5235°
True anomaly
107.59739°
Mean anomaly
107.5097°
Eccentric anomaly
107.55355°
Mean motion
3.6884 °/min
Orbital period
97.6 mins
BSTAR
0.000061349
Loading maneuver chart data...
Computing Atmospheric mass density...
Loading historical data...
Loading historical data...
Loading historical data...
Loading historical data...
Loading historical data...
Loading historical data...
Loading historical data...
Other satellites on launch #47 in the year 2025 (2025-03-12 UTC)

Documentation

Showing up to 5 results
|